目前日期文章:201410 (105)

瀏覽方式: 標題列表 簡短摘要
發表時間 文章標題 人氣 留言
2014-10-29 【OPPO】Yoyo R2001 4.7吋四核雙卡智慧機(送原廠皮套+多好禮) (0) (0)
2014-10-29 【GASSHO】亮顏活力頌-美容醋飲(200ml x6瓶-盒) (0) (0)
2014-10-29 【GPLUS】E3 Plus 原廠側翻磁扣皮套 (0) (0)
2014-10-29 【Masuya】4連蠟筆小新燒肉風味餅(52g) (0) (0)
2014-10-29 【美食村】O-Hi-Yo元氣厚片(30組60片) (5) (0)
2014-10-28 【童心未泯】女童-韓風格紋甜美質感套裝 7-15(白-紫) (0) (0)
2014-10-28 跑車鋼構造型支架 (0) (0)
2014-10-28 【LOVE NAIL】法式巴黎甜心系列(甜心豹豹) (0) (0)
2014-10-28 【ohohmini孕婦裝專櫃】童趣樂園平口孕婦上衣(兩色) (0) (0)
2014-10-28 【Dr.HUANG 黃禎憲】Dr.HUANG黃禎憲 舒敏全餐組(5入-組) (0) (0)
2014-10-28 【COTEX可透舒】環保布尿布 日用型乾爽吸尿墊(- 10片組) (0) (0)
2014-10-28 【TOUCHBeauty】迷你時尚鼻毛器(AS-0656) (0) (0)
2014-10-28 【聖哥-NewStar】厚-緹花新生兒肚衣(護手反摺) (0) (0)
2014-10-25 【紅布朗】輕烘焙-堅果禮盒(3罐-組) (0) (0)
2014-10-25 【阿華田】黃金大麥牛奶麥芽飲品(400g) (0) (0)
2014-10-25 【臺灣茶人】大禹嶺琉璃沖泡壺組(茶葉4罐 - 贈:琉璃沖泡壺乙組) (0) (0)
2014-10-25 【INNOCENCE 伊諾仙絲】蘆薈保濕舒緩凍膜ALOEVERA 95%(500ml) (0) (0)
2014-10-25 SEIKO KINETIC 時尚型男GMT人動電能錶-IP黑框 (0) (0)
2014-10-25 【草本美學】珍珠白玉乳30ml(柔亮系列) (0) (0)
2014-10-24 【媽咪GO】蝴蝶結紗裙連衣裙 40003(適合70-100公分) (0) (0)
2014-10-24 【boon】SIP 7oz小水杯 (0) (0)
2014-10-24 【panpantutu】雙面芭蕾舞裙-彩紅仙子(日本設計師) (0) (0)
2014-10-24 夢17 慕斯染髮乳-甜橙褐17號 二入組 (0) (0)
2014-10-24 【Nuby】雙耳防漏彈跳吸管水杯240ml藍(921669) (0) (0)
2014-10-24 (百家珍)健康養生醋6入 (0) (0)
2014-10-24 【美吾髮】卡樂芙優質染髮霜(栗子銅棕) (0) (0)
2014-10-24 【L&P 美迪惠爾】高效特強保濕導入面膜(10片-盒) (1) (0)
2014-10-23 桂格敏兒.藍(吻魚)麥精配方(M) (0) (0)
2014-10-23 53年穀物專家-馬玉山32綜合穀粉(週年慶搶購組)(M) (0) (0)
2014-10-23 【魔法Baby】臺灣製造包紗布前全開套裝-套裝-嬰幼兒內著(k00521_b) (0) (0)
2014-10-23 【韓味不二】韓國Binggrae 草莓牛奶(200ml - 24瓶) (0) (0)
2014-10-23 【媽咪GO】夏款棒棒糖套裝 20004(適身高65-90) (0) (0)
2014-10-22 【大前醫研】1號美胸乳_胸滿對策4入組(135ml-瓶-4) (0) (0)
2014-10-22 【Kinderspel】雙面穿戴-輕柔童話花帽(甜蜜橘白) (0) (0)
2014-10-22 【北緯23.5】東方美人茶 白玉無瑕精華凝露 (0) (0)
2014-10-21 【施巴】嬰兒泡泡露超值組 (0) (0)
2014-10-21 【PSK 寶絲汀】Q10嫩白卸妝乳100ml(2入組) (0) (0)
2014-10-21 【童年時光】象笛(12入-組) (0) (0)
2014-10-21 【GMP BABY 東京西川】彩條花棉毯(粉藍-粉紅-粉橘) (0) (0)
2014-10-21 【Nuby】炫彩彈跳吸管杯420ml紅(098835) (0) (0)
2014-10-21 【Natch Pro】聖托貝升級版-蔓越莓精華(買一送一) (0) (0)
2014-10-19 【Cafulan 佳芙蘭】雅丹黛絲彈嫩煥妍青春露 150ml(瞬間感觸的憾動 享受原始滋潤) (0) (0)
2014-10-19 【AVALON湛藍】茶樹薄荷洗髮潤絲(二入組) (0) (0)
2014-10-19 【草本之家】黃金蟲草北蟲草子實體(90粒3入) (0) (0)
2014-10-17 【喜多】四格旋轉奶粉盒 (-大 區) (0) (0)
2014-10-17 恆源生之悅玫瑰天竺葵精油潤髮乳 250ml(附贈試用包) (0) (0)
2014-10-17 【英田亞樹】超柔軟兒童防護防撞條4入組+防撞角8入組 (0) (0)
2014-10-17 【Dr.Eris】蜂萃檸檬不老青春霜(4入) (0) (0)
2014-10-17 GALATEA葛拉蒂鑽顏系列-9BP眉睫兩用刷 (0) (0)
2014-10-16 【童年時光】奶油蛋黃派(18gX8小包) (0) (0)
1 23